Newton, KS

10:15 PM CDT on June 27, 2017 (GMT -0500)
Newton City County

Weather History for KEWK - March, 2013

Change the Weather History Date:

Thursday, March 7, 2013

  Actual Average Record
Temperature  
Mean Temperature 46 °F -  
Max Temperature 62 °F 47 °F 73 °F (2006)
Min Temperature 30 °F 26 °F 19 °F (1999)
Degree Days  
Heating Degree Days 19    
Moisture  
Dew Point 25 °F    
Average Humidity 49    
Maximum Humidity 69    
Minimum Humidity 27    
Precipitation  
Precipitation 0.00 in - - ()
Sea Level Pressure  
Sea Level Pressure 30.09 in    
Wind  
Wind Speed 15 mph (SSE)    
Max Wind Speed 24 mph    
Max Gust Speed 30 mph    
Visibility 10 miles    
Events      
Averages and records for this station are not official NWS values.
T = Trace of Precipitation, MM = Missing Value Source: NWS Daily Summary

Daily Weather History Graph

Daily Weather History Graph

Search for Another Location

Airport or City:

Trip Planner

Search our weather history database for the weather conditions in past years. The results will help you decide how hot, cold, wet, or windy it might be!

Date:

Astronomy

Mar. 07, 2013 Rise Set
Actual Time 6:51 AM CST 6:28 PM CST
Civil Twilight 6:25 AM CST 6:55 PM CST
Nautical Twilight 5:55 AM CST 7:25 PM CST
Astronomical Twilight 5:24 AM CST 7:56 PM CST
Moon 3:49 AM CST (3/7) 2:21 PM CST (3/7)
Length of Visible Light 12h 29m
Length of Day
11h 37m
Waning Crescent, 20% of the Moon is Illuminated
Mar 7
Waning Crescent
Mar 11
New
Mar 19
First Quarter
Mar 27
Full
Apr 2
Last Quarter

Hourly Weather History & Observations

Time (CST) Temp. Windchill Dew Point Humidity Pressure Visibility Wind Dir Wind Speed Gust Speed Precip Events Conditions
12:15 AM 30.2 °F 20.8 °F 21.2 °F 69% 30.18 in 10.0 mi SE 11.5 mph - N/A   Clear
12:35 AM 30.2 °F 20.2 °F 21.2 °F 69% 30.18 in 10.0 mi SE 12.7 mph - N/A   Clear
12:55 AM 30.2 °F 18.9 °F 21.2 °F 69% 30.17 in 10.0 mi SE 16.1 mph - N/A   Clear
1:15 AM 30.2 °F 18.9 °F 21.2 °F 69% 30.17 in 10.0 mi SE 16.1 mph - N/A   Clear
1:35 AM 30.2 °F 19.8 °F 21.2 °F 69% 30.17 in 10.0 mi SE 13.8 mph - N/A   Clear
1:55 AM 30.2 °F 18.9 °F 21.2 °F 69% 30.17 in 10.0 mi SE 16.1 mph - N/A   Clear
2:15 AM 30.2 °F 19.8 °F 21.2 °F 69% 30.17 in 10.0 mi SE 13.8 mph - N/A   Clear
2:35 AM 30.2 °F 19.8 °F 21.2 °F 69% 30.16 in 10.0 mi SE 13.8 mph - N/A   Clear
2:55 AM 30.2 °F 19.8 °F 21.2 °F 69% 30.15 in 10.0 mi SE 13.8 mph - N/A   Clear
3:15 AM 30.2 °F 19.8 °F 21.2 °F 69% 30.14 in 10.0 mi SE 13.8 mph - N/A   Clear
3:35 AM 30.2 °F 19.8 °F 21.2 °F 69% 30.14 in 10.0 mi SE 13.8 mph - N/A   Clear
3:55 AM 30.2 °F 19.3 °F 21.2 °F 69% 30.13 in 10.0 mi SE 15.0 mph - N/A   Clear
4:15 AM 30.2 °F 19.8 °F 21.2 °F 69% 30.13 in 10.0 mi SE 13.8 mph - N/A   Clear
4:35 AM 30.2 °F 19.8 °F 21.2 °F 69% 30.13 in 10.0 mi SE 13.8 mph - N/A   Clear
4:55 AM 30.2 °F 19.3 °F 21.2 °F 69% 30.13 in 10.0 mi SE 15.0 mph - N/A   Clear
5:15 AM 30.2 °F 19.8 °F 21.2 °F 69% 30.12 in 10.0 mi SE 13.8 mph - N/A   Clear
5:35 AM 30.2 °F 19.8 °F 21.2 °F 69% 30.12 in 10.0 mi SE 13.8 mph - N/A   Clear
5:55 AM 30.2 °F 19.3 °F 21.2 °F 69% 30.12 in 10.0 mi SE 15.0 mph - N/A   Clear
6:15 AM 30.2 °F 19.8 °F 21.2 °F 69% 30.11 in 10.0 mi SE 13.8 mph - N/A   Clear
6:35 AM 30.2 °F 19.8 °F 21.2 °F 69% 30.11 in 10.0 mi SE 13.8 mph - N/A   Clear
6:55 AM 30.2 °F 19.3 °F 21.2 °F 69% 30.11 in 10.0 mi SE 15.0 mph - N/A   Clear
7:15 AM 30.2 °F 19.3 °F 21.2 °F 69% 30.12 in 10.0 mi SE 15.0 mph - N/A   Clear
7:35 AM 32.0 °F 20.8 °F 21.2 °F 64% 30.11 in 10.0 mi SE 17.3 mph - N/A   Clear
7:55 AM 33.8 °F 23.2 °F 21.2 °F 60% 30.11 in 10.0 mi SE 17.3 mph - N/A   Clear
8:15 AM 35.6 °F 26.2 °F 23.0 °F 60% 30.12 in 10.0 mi SSE 15.0 mph - N/A   Clear
8:35 AM 37.4 °F 27.8 °F 23.0 °F 56% 30.12 in 10.0 mi SSE 17.3 mph - N/A   Clear
8:55 AM 39.2 °F 30.5 °F 24.8 °F 56% 30.12 in 10.0 mi SSE 16.1 mph - N/A   Clear
9:15 AM 41.0 °F 32.5 °F 24.8 °F 53% 30.12 in 10.0 mi SSE 17.3 mph 21.9 mph N/A   Clear
9:35 AM 44.6 °F 37.2 °F 24.8 °F 46% 30.12 in 10.0 mi SSE 17.3 mph 23.0 mph N/A   Clear
9:55 AM 46.4 °F 39.5 °F 24.8 °F 43% 30.12 in 10.0 mi SSE 17.3 mph 25.3 mph N/A   Clear
10:15 AM 48.2 °F - 24.8 °F 40% 30.11 in 10.0 mi South 19.6 mph 27.6 mph N/A   Clear
10:35 AM 50.0 °F - 26.6 °F 40% 30.11 in 10.0 mi SSE 18.4 mph 24.2 mph N/A   Clear
10:55 AM 51.8 °F - 26.6 °F 38% 30.10 in 10.0 mi South 23.0 mph 29.9 mph N/A   Clear
11:15 AM 53.6 °F - 26.6 °F 35% 30.10 in 10.0 mi South 21.9 mph 28.8 mph N/A   Clear
11:35 AM 55.4 °F - 26.6 °F 33% 30.10 in 10.0 mi South 19.6 mph 26.5 mph N/A   Clear
11:55 AM 55.4 °F - 26.6 °F 33% 30.09 in 10.0 mi South 20.7 mph 25.3 mph N/A   Clear
12:15 PM 57.2 °F - 28.4 °F 33% 30.09 in 10.0 mi South 20.7 mph 26.5 mph N/A   Clear
12:35 PM 57.2 °F - 28.4 °F 33% 30.08 in 10.0 mi South 19.6 mph 26.5 mph N/A   Clear
12:55 PM 59.0 °F - 26.6 °F 29% 30.07 in 10.0 mi South 20.7 mph 26.5 mph N/A   Clear
1:15 PM 60.8 °F - 28.4 °F 29% 30.06 in 10.0 mi South 23.0 mph 27.6 mph N/A   Clear
1:35 PM 60.8 °F - 26.6 °F 27% 30.05 in 10.0 mi South 21.9 mph 27.6 mph N/A   Clear
1:55 PM 60.8 °F - 28.4 °F 29% 30.05 in 10.0 mi South 18.4 mph - N/A   Clear
2:15 PM 62.6 °F - 28.4 °F 27% 30.04 in 10.0 mi South 18.4 mph 24.2 mph N/A   Clear
2:35 PM 62.6 °F - 28.4 °F 27% 30.03 in 10.0 mi South 24.2 mph 28.8 mph N/A   Clear
2:55 PM 62.6 °F - 28.4 °F 27% 30.02 in 10.0 mi SSE 21.9 mph 26.5 mph N/A   Clear
3:15 PM 62.6 °F - 28.4 °F 27% 30.02 in 10.0 mi SSE 20.7 mph 29.9 mph N/A   Clear
3:35 PM 62.6 °F - 28.4 °F 27% 30.02 in 10.0 mi South 20.7 mph 27.6 mph N/A   Clear
3:55 PM 62.6 °F - 28.4 °F 27% 30.02 in 10.0 mi South 20.7 mph 28.8 mph N/A   Clear
4:15 PM 62.6 °F - 28.4 °F 27% 30.02 in 10.0 mi South 17.3 mph 26.5 mph N/A   Clear
4:35 PM 62.6 °F - 28.4 °F 27% 30.02 in 10.0 mi SSE 17.3 mph - N/A   Clear
4:55 PM 62.6 °F - 28.4 °F 27% 30.02 in 10.0 mi SSE 12.7 mph 24.2 mph N/A   Clear
5:15 PM 60.8 °F - 28.4 °F 29% 30.02 in 10.0 mi SSE 13.8 mph - N/A   Clear
5:35 PM 60.8 °F - 28.4 °F 29% 30.03 in 10.0 mi SSE 15.0 mph 18.4 mph N/A   Clear
5:55 PM 59.0 °F - 28.4 °F 31% 30.03 in 10.0 mi SSE 10.4 mph - N/A   Clear
6:15 PM 55.4 °F - 30.2 °F 38% 30.03 in 10.0 mi SE 10.4 mph - N/A   Clear
6:35 PM 51.8 °F - 28.4 °F 41% 30.03 in 10.0 mi SE 9.2 mph - N/A   Clear
6:55 PM 50.0 °F - 28.4 °F 43% 30.04 in 10.0 mi SE 10.4 mph - N/A   Clear
7:15 PM 48.2 °F - 28.4 °F 46% 30.04 in 10.0 mi SE 10.4 mph - N/A   Clear
7:35 PM 48.2 °F - 28.4 °F 46% 30.05 in 10.0 mi SE 10.4 mph - N/A   Clear
7:55 PM 48.2 °F - 28.4 °F 46% 30.05 in 10.0 mi SE 10.4 mph - N/A   Clear
8:15 PM 48.2 °F - 28.4 °F 46% 30.05 in 10.0 mi ESE 9.2 mph - N/A   Clear
8:35 PM 48.2 °F - 28.4 °F 46% 30.05 in 10.0 mi SE 12.7 mph - N/A   Clear
8:55 PM 46.4 °F 41.1 °F 28.4 °F 50% 30.06 in 10.0 mi SE 11.5 mph - N/A   Clear
9:15 PM 46.4 °F 41.1 °F 28.4 °F 50% 30.06 in 10.0 mi SE 11.5 mph - N/A   Clear
9:35 PM 46.4 °F 41.5 °F 28.4 °F 50% 30.07 in 10.0 mi SE 10.4 mph - N/A   Clear
9:55 PM 46.4 °F 41.5 °F 28.4 °F 50% 30.08 in 10.0 mi ESE 10.4 mph - N/A   Clear
10:15 PM 44.6 °F 39.2 °F 26.6 °F 49% 30.08 in 10.0 mi ESE 10.4 mph - N/A   Clear
10:35 PM 44.6 °F 39.2 °F 26.6 °F 49% 30.08 in 10.0 mi ESE 10.4 mph - N/A   Clear
10:55 PM 44.6 °F 38.4 °F 28.4 °F 53% 30.08 in 10.0 mi SE 12.7 mph - N/A   Clear
11:15 PM 42.8 °F 37.0 °F 28.4 °F 57% 30.07 in 10.0 mi SE 10.4 mph - N/A   Clear
11:35 PM 42.8 °F 36.2 °F 28.4 °F 57% 30.07 in 10.0 mi SSE 12.7 mph - N/A   Clear
11:55 PM 44.6 °F 38.8 °F 28.4 °F 53% 30.08 in 10.0 mi SSE 11.5 mph - N/A   Clear